Saltar para o conteúdo principal

Terceira / Ribeira das Nove (DROTRH)

ID 11217370 · 38.7540, -27.3245 mapa

Última leitura · 2026-05-09 18:00 (Europe/Lisbon)

Temperatura
8.9 °C
Humidade
100 %
Pressão
Precipitação
0.4 mm
Radiação
288 W/m²
Velocidade do vento
2.2 km/h
Direcção do vento
SE · Sudeste

Histórico de 24 horas

Hora (Europe/Lisbon) Temperatura Humidade Pressão Chuva Vento Direcção
2026-05-09 18:00 8.9 °C 100 % 0.4 mm 2.2 km/h SE
2026-05-09 17:00 8.9 °C 100 % 0.6 mm 2.9 km/h SE
2026-05-09 16:00 8.9 °C 100 % 0.7 mm 2.9 km/h SE
2026-05-09 15:00 8.6 °C 100 % 0.0 mm 3.2 km/h E
2026-05-09 14:00 7.7 °C 100 % 0.2 mm 7.2 km/h W
2026-05-09 13:00 7.4 °C 99 % 0.0 mm 10.4 km/h NW
2026-05-09 12:00 7.0 °C 96 % 0.0 mm 6.8 km/h W
2026-05-09 11:00 7.0 °C 96 % 0.1 mm 7.2 km/h W
2026-05-09 10:00 6.2 °C 88 % 0.0 mm 5.4 km/h W
2026-05-09 09:00 5.7 °C 96 % 0.0 mm 3.6 km/h SE
2026-05-09 08:00 5.6 °C 98 % 0.0 mm 4.3 km/h S
2026-05-09 07:00 5.9 °C 99 % 0.0 mm 4.0 km/h SW
2026-05-09 06:00 6.4 °C 99 % 0.0 mm 3.2 km/h SE
2026-05-09 05:00 6.5 °C 99 % 0.0 mm 2.9 km/h SW
2026-05-09 04:00 6.6 °C 99 % 0.0 mm 2.5 km/h SE
2026-05-09 03:00 6.1 °C 99 % 0.0 mm 2.9 km/h S
2026-05-09 02:00 5.7 °C 100 % 0.0 mm 2.9 km/h SE
2026-05-09 01:00 6.6 °C 100 % 0.0 mm 2.9 km/h SE
2026-05-09 00:00 7.1 °C 100 % 0.0 mm 3.6 km/h SW
2026-05-08 23:00 7.8 °C 100 % 0.1 mm 2.5 km/h SE
2026-05-08 22:00 8.2 °C 100 % 0.0 mm 3.6 km/h E
2026-05-08 21:00 8.7 °C 100 % 0.0 mm 5.0 km/h W
2026-05-08 20:00 9.1 °C 100 % 0.0 mm 4.0 km/h S
2026-05-08 19:00 9.2 °C 100 % 0.0 mm 7.6 km/h W